Preview of NWS' New Version of Forecast
This preview is not operational and should not be used for support decisions.

Regional Weather Roundup (RWR)

Issued by Philadelphia/Mt Holly (PHI)

                            
000
ASUS41 KPHI 181912
RWRPHI

REGIONAL WEATHER ROUNDUP
NATIONAL WEATHER SERVICE MOUNT HOLLY NJ
300 PM EDT WED SEP 18 2019

NOTE:  "FAIR" INDICATES FEW OR NO CLOUDS BELOW 12,000 FEET WITH NO
SIGNIFICANT WEATHER AND/OR OBSTRUCTIONS TO VISIBILITY.

 * = STATION DOES NOT REPORT PRECIPITATION (E.G. RAIN, SNOW, ETC.) 
        OR FOG.

NJZ015>026-182000-
SOUTHERN NEW JERSEY
  
CITY           SKY/WX    TMP DP  RH WIND       PRES   REMARKS
POMONA         FAIR      72  52  49 E15       30.20S                  
WILDWOOD*      FAIR      71  52  50 E16G22    30.20S                  
MILLVILLE      PTSUNNY   71  50  47 E8        30.20S                  
MOUNT HOLLY    FAIR      72  50  45 MISG      30.21S                  
TRENTON        PTSUNNY   71  49  45 NE7       30.22R                  

$$
NJZ001>014-182000-
NORTHERN NEW JERSEY
  
CITY           SKY/WX    TMP DP  RH WIND       PRES   REMARKS
SUSSEX         FAIR      70  44  39 NE9       30.24F                  
ANDOVER*         N/A     69  47  45 NE5       30.24S                  
MORRISTOWN     PTSUNNY   70  52  52 NE5       30.23F                  
NEWARK         FAIR      71  48  43 N12       30.23S                  
TETERBORO      PTSUNNY   71  47  42 E8G18     30.22S                  
CALDWELL       FAIR      72  48  42 VRB6      30.23F                  
SOMERVILLE     PTSUNNY   70  47  43 VRB5      30.21S                  
ALLAIRE*       CLOUDY    66  50  56 NE12G20   30.24R                  
TOMS RIVER*    FAIR      66  53  63 NE12      30.23R                  

$$
PAZ043-044-047-054-055-060>062-066>071-182000-
EASTERN PENNSYLVANIA
  
CITY           SKY/WX    TMP DP  RH WIND       PRES   REMARKS
PHILADELPHIA   FAIR      75  46  35 E5        30.21S                  
NORTH PHILA    FAIR      75  46  35 NE6       30.23S                  
BLUE BELL*     FAIR      72  50  45 E7        30.23R                  
DOYLESTOWN     FAIR      76  47  35 N7        30.22S                  
QUAKERTOWN*    MOSUNNY   72  50  46 SE5       30.23                   
PERKASIE*      FAIR      70  48  46 N7        30.24S                  
POTTSTOWN      FAIR      71  49  45 NE6       30.24S                  
LANCASTER      FAIR      74  49  41 E5        30.21F                  
COATESVILLE    FAIR      72  50  46 N5G13     30.23S                  
WEST CHESTER   MOCLDY    72  46  40 CALM      30.22S                  
READING        FAIR      73  48  41 NE9       30.21F                  
ALLENTOWN      FAIR      72  47  40 NE9G17    30.23F                  
QN CITY/ALNTWN FAIR      72  46  40 NE15      30.24S                  
MOUNT POCONO   FAIR      67  43  41 NE9       30.26R                  
HAZLETON       FAIR      68  45  42 NW6       30.28S                  
LEHIGHTON      FAIR      72  46  40 CALM      30.23F                  
WILKES BARRE   FAIR      74  39  28 NE6       30.23S                  

$$
DEZALL-MDZ008-012-015-019-020-182000-
DELAWARE AND EASTERN MARYLAND
  
CITY           SKY/WX    TMP DP  RH WIND       PRES   REMARKS
WILMINGTON     PTSUNNY   72  51  47 N10G20    30.21S                  
CHESWOLD       PTCLDY    73  52  46 NE10      30.20S                  
GEORGETOWN     NOT AVBL                                               
EASTON         PTSUNNY   75  52  43 NE7       30.22F                  
STEVENSVILLE   FAIR      75  54  46 N9        30.19F                  
PATUXENT       PTSUNNY   74  51  44 N9        30.18S                  
OCEAN CITY     FAIR      70  53  54 NE13G26   30.18S                  
WALLOPS ISLAND FAIR      71  54  54 NE22G29   30.17S                  
CAMBRIDGE      PTSUNNY   73  50  43 NE8G16    30.18S                  
SALISBURY      CLOUDY    72  54  53 NE13G23   30.18S                  

$$
PAZ001-021-NYZ056-072-MDZ011-DCZ001-182000-
OTHER NEARBY LOCATIONS
  
CITY           SKY/WX    TMP DP  RH WIND       PRES   REMARKS
HARRISBURG     FAIR      77  46  33 E10       30.20F                  
STATE COLLEGE  MOSUNNY   70  43  37 NE10      30.25S                  
WILLIAMSPORT   FAIR      76  39  26 NE13      30.21F                  
BINGHAMTON     FAIR      68  41  37 E8        30.27F                  
NEW YORK CITY  FAIR      66  49  54 E6        30.26S                  
BALTIMORE      FAIR      78  51  38 NE6       30.18F                  
WASHINGTON DC  FAIR      79  49  34 E8        30.18F                  

$$